Previsão horária em Barkweda

Hoje, 23 Julho, Sexta-feira

Tempo Temperatura Precipitação Vento Pressão Humidade
00:00 +18°C° 0 mm 1 m/s 755 mmHg 78%
01:00 +18°C° 0 mm 1 m/s 755 mmHg 78%
02:00 +16°C° 0 mm 1 m/s 755 mmHg 82%
03:00 +16°C° 0 mm 1 m/s 755 mmHg 85%
04:00 +15°C° 0 mm 1 m/s 755 mmHg 89%
05:00 +16°C° 0 mm 1 m/s 755 mmHg 84%
06:00 +19°C° 0 mm 1 m/s 755 mmHg 78%
07:00 +19°C° 0 mm 2 m/s 755 mmHg 73%
08:00 +20°C° 0 mm 2 m/s 755 mmHg 67%
09:00 +21°C° 0 mm 2 m/s 755 mmHg 62%
10:00 +24°C° 0 mm 2 m/s 755 mmHg 57%
11:00 +24°C° 0 mm 3 m/s 754 mmHg 53%
12:00 +25°C° 0 mm 3 m/s 754 mmHg 50%
13:00 +26°C° 0 mm 3 m/s 754 mmHg 46%
14:00 +25°C° 0 mm 3 m/s 754 mmHg 47%
15:00 +25°C° 0 mm 3 m/s 754 mmHg 48%
16:00 +25°C° 0 mm 3 m/s 754 mmHg 48%
17:00 +24°C° 0 mm 3 m/s 754 mmHg 57%
18:00 +21°C° 0 mm 2 m/s 754 mmHg 66%
19:00 +19°C° 0 mm 2 m/s 754 mmHg 74%
20:00 +18°C° 0 mm 2 m/s 754 mmHg 79%
21:00 +18°C° 0 mm 1 m/s 754 mmHg 83%
22:00 +16°C° 0 mm 1 m/s 754 mmHg 87%
23:00 +15°C° 0 mm 1 m/s 755 mmHg 89%

Amanhã, 24 Julho, Sábado

Tempo Temperatura Precipitação Vento Pressão Humidade
00:00 +15°C° 0 mm 1 m/s 755 mmHg 91%
01:00 +15°C° 0 mm 1 m/s 755 mmHg 92%
02:00 +15°C° 0 mm 1 m/s 755 mmHg 93%
03:00 +15°C° 0 mm 1 m/s 754 mmHg 94%
04:00 +15°C° 0 mm 1 m/s 754 mmHg 96%
05:00 +16°C° 0 mm 1 m/s 754 mmHg 91%
06:00 +19°C° 0 mm 1 m/s 754 mmHg 86%
07:00 +21°C° 0 mm 1 m/s 755 mmHg 81%
08:00 +21°C° 0 mm 2 m/s 755 mmHg 74%
09:00 +23°C° 0 mm 2 m/s 755 mmHg 68%
10:00 +25°C° 0 mm 2 m/s 755 mmHg 61%
11:00 +25°C° 0 mm 2 m/s 755 mmHg 58%
12:00 +26°C° 0 mm 2 m/s 754 mmHg 56%
13:00 +26°C° 0 mm 2 m/s 754 mmHg 53%
14:00 +26°C° 0 mm 2 m/s 754 mmHg 56%
15:00 +26°C° 0 mm 2 m/s 754 mmHg 58%
16:00 +25°C° 0 mm 1 m/s 754 mmHg 60%
17:00 +24°C° 0 mm 1 m/s 754 mmHg 65%
18:00 +23°C° 0 mm 2 m/s 754 mmHg 71%
19:00 +21°C° 0 mm 2 m/s 754 mmHg 76%
20:00 +20°C° 0 mm 2 m/s 754 mmHg 78%
21:00 +19°C° 0 mm 2 m/s 754 mmHg 79%
22:00 +18°C° 0 mm 2 m/s 755 mmHg 80%
23:00 +18°C° 0 mm 2 m/s 755 mmHg 80%

Depois de amanhã, 25 Julho, Domingo

Tempo Temperatura Precipitação Vento Pressão Humidade
00:00 +18°C° 0 mm 2 m/s 755 mmHg 79%
01:00 +18°C° 0 mm 2 m/s 755 mmHg 79%
02:00 +18°C° 0 mm 2 m/s 755 mmHg 80%
03:00 +18°C° 0 mm 2 m/s 754 mmHg 81%
04:00 +18°C° 0 mm 2 m/s 754 mmHg 83%
05:00 +19°C° 0 mm 2 m/s 754 mmHg 80%
06:00 +20°C° 0 mm 2 m/s 754 mmHg 77%
07:00 +21°C° 0 mm 2 m/s 755 mmHg 75%
08:00 +24°C° 0 mm 3 m/s 755 mmHg 67%
09:00 +25°C° 0 mm 3 m/s 755 mmHg 60%
10:00 +27°C° 0 mm 4 m/s 755 mmHg 52%
11:00 +27°C° 0 mm 4 m/s 754 mmHg 49%
12:00 +28°C° 0 mm 4 m/s 754 mmHg 47%
13:00 +28°C° 0 mm 4 m/s 754 mmHg 44%
14:00 +28°C° 0 mm 4 m/s 754 mmHg 48%
15:00 +27°C° 0 mm 3 m/s 754 mmHg 51%
16:00 +27°C° 0 mm 3 m/s 754 mmHg 55%
17:00 +26°C° 0 mm 3 m/s 754 mmHg 59%
18:00 +25°C° 0 mm 3 m/s 754 mmHg 63%
19:00 +24°C° 0 mm 3 m/s 754 mmHg 67%
20:00 +22°C° 0 mm 4 m/s 754 mmHg 67%
21:00 +22°C° 0 mm 4 m/s 754 mmHg 67%
22:00 +22°C° 0 mm 4 m/s 754 mmHg 67%
23:00 +21°C° 0 mm 4 m/s 754 mmHg 68%

26 Julho, Segunda-feira

Tempo Temperatura Precipitação Vento Pressão Humidade
00:00 +21°C° 0 mm 4 m/s 754 mmHg 68%
01:00 +21°C° 0 mm 4 m/s 753 mmHg 69%
02:00 +20°C° 0.1 mm 4 m/s 753 mmHg 75%
03:00 +19°C° 0.1 mm 3 m/s 753 mmHg 81%
04:00 +18°C° 0.1 mm 3 m/s 753 mmHg 87%
05:00 +19°C° 0 mm 3 m/s 753 mmHg 85%
06:00 +19°C° 0 mm 4 m/s 753 mmHg 83%
07:00 +20°C° 0 mm 4 m/s 754 mmHg 80%
08:00 +21°C° 0 mm 5 m/s 753 mmHg 75%
09:00 +22°C° 0 mm 5 m/s 753 mmHg 70%
10:00 +23°C° 0 mm 6 m/s 753 mmHg 65%
11:00 +26°C° 0 mm 6 m/s 753 mmHg 59%
12:00 +28°C° 0 mm 6 m/s 753 mmHg 54%
13:00 +30°C° 0 mm 7 m/s 752 mmHg 48%
14:00 +30°C° 0 mm 6 m/s 752 mmHg 50%
15:00 +30°C° 0 mm 6 m/s 752 mmHg 52%
16:00 +29°C° 0 mm 6 m/s 751 mmHg 54%
17:00 +28°C° 0.3 mm 5 m/s 751 mmHg 61%
18:00 +26°C° 0.3 mm 5 m/s 751 mmHg 68%
19:00 +25°C° 0.3 mm 5 m/s 751 mmHg 76%
20:00 +23°C° 0.2 mm 4 m/s 751 mmHg 80%
21:00 +22°C° 0.2 mm 4 m/s 751 mmHg 85%
22:00 +21°C° 0.2 mm 4 m/s 751 mmHg 89%
23:00 +20°C° 0.8 mm 4 m/s 751 mmHg 92%

27 Julho, Terça-feira

Tempo Temperatura Precipitação Vento Pressão Humidade
00:00 +20°C° 0.8 mm 3 m/s 751 mmHg 94%
01:00 +19°C° 0.8 mm 2 m/s 751 mmHg 96%
02:00 +19°C° 0.6 mm 2 m/s 751 mmHg 97%
03:00 +19°C° 0.6 mm 2 m/s 751 mmHg 97%
04:00 +19°C° 0.6 mm 2 m/s 751 mmHg 97%
05:00 +21°C° 0 mm 1 m/s 751 mmHg 94%
06:00 +22°C° 0 mm 1 m/s 751 mmHg 91%
07:00 +23°C° 0 mm 1 m/s 751 mmHg 88%
08:00 +25°C° 0 mm 1 m/s 751 mmHg 80%
09:00 +26°C° 0 mm 1 m/s 751 mmHg 71%
10:00 +28°C° 0 mm 2 m/s 752 mmHg 63%
11:00 +29°C° 0 mm 2 m/s 752 mmHg 58%
12:00 +30°C° 0 mm 2 m/s 751 mmHg 54%
13:00 +31°C° 0 mm 2 m/s 751 mmHg 50%
14:00 +30°C° 0 mm 2 m/s 751 mmHg 53%
15:00 +30°C° 0 mm 2 m/s 751 mmHg 56%
16:00 +29°C° 0 mm 2 m/s 751 mmHg 59%
17:00 +27°C° 0.4 mm 2 m/s 751 mmHg 67%
18:00 +26°C° 0.4 mm 2 m/s 751 mmHg 76%
19:00 +24°C° 0.4 mm 2 m/s 751 mmHg 84%
20:00 +23°C° 0.9 mm 2 m/s 751 mmHg 87%
21:00 +22°C° 0.9 mm 1 m/s 751 mmHg 91%
22:00 +21°C° 0.9 mm 1 m/s 751 mmHg 94%
23:00 +21°C° 0.4 mm 1 m/s 751 mmHg 94%

28 Julho, Quarta-feira

Tempo Temperatura Precipitação Vento Pressão Humidade
00:00 +21°C° 0.4 mm 1 m/s 750 mmHg 94%
01:00 +21°C° 0.4 mm 1 m/s 750 mmHg 95%
02:00 +21°C° 0.7 mm 1 m/s 750 mmHg 96%
03:00 +20°C° 0.7 mm 1 m/s 750 mmHg 96%
04:00 +20°C° 0.7 mm 1 m/s 749 mmHg 97%
05:00 +20°C° 0 mm 2 m/s 749 mmHg 94%
06:00 +21°C° 0 mm 2 m/s 749 mmHg 92%
07:00 +21°C° 0 mm 2 m/s 749 mmHg 89%
08:00 +23°C° 0.4 mm 2 m/s 749 mmHg 87%
09:00 +22°C° 0.4 mm 3 m/s 750 mmHg 85%
10:00 +22°C° 0.4 mm 3 m/s 750 mmHg 83%
11:00 +21°C° 0.4 mm 3 m/s 750 mmHg 84%
12:00 +21°C° 0.4 mm 3 m/s 750 mmHg 84%
13:00 +20°C° 0.4 mm 3 m/s 750 mmHg 85%
14:00 +20°C° 0 mm 3 m/s 751 mmHg 84%
15:00 +21°C° 0 mm 2 m/s 751 mmHg 82%
16:00 +21°C° 0 mm 2 m/s 751 mmHg 81%
17:00 +20°C° 0.2 mm 2 m/s 751 mmHg 84%
18:00 +20°C° 0.2 mm 2 m/s 751 mmHg 87%
19:00 +20°C° 0.2 mm 2 m/s 750 mmHg 90%
20:00 +19°C° 0.2 mm 3 m/s 751 mmHg 91%
21:00 +18°C° 0.2 mm 3 m/s 751 mmHg 92%
22:00 +18°C° 0.2 mm 4 m/s 751 mmHg 93%
23:00 +17°C° 0 mm 4 m/s 751 mmHg 94%
Mostrar mais